Weather History for Forest City, IA

Change the Weather History Date:

Monday, May 13, 2013

  Actual Average Record
Temperature  
Mean Temperature 56 °F -  
Max Temperature 78 °F 67 °F 78 °F (2013)
Min Temperature 35 °F 44 °F 35 °F (2012)
Degree Days  
Heating Degree Days 8    
Growing Degree Days 6 (Base 50)    
Moisture  
Dew Point 31 °F    
Average Humidity 44    
Maximum Humidity 87    
Minimum Humidity 15    
Precipitation  
Precipitation 0.00 in - - ()
Sea Level Pressure  
Sea Level Pressure 29.98 in    
Wind  
Wind Speed 7 mph (South)    
Max Wind Speed 24 mph    
Max Gust Speed 31 mph    
Visibility 10 miles    
Events      
Averages and records for this station are not official NWS values.
T = Trace of Precipitation, MM = Missing Value Source: NWS Daily Summary

Daily Weather History Graph

Daily Weather History Graph

Search for Another Location

Airport:

Trip Planner

Search our weather history database for the weather conditions in past years. The results will help you decide how hot, cold, wet, or windy it might be!

Date:

Astronomy

May. 13, 2013 Rise Set
Actual Time 5:52 AM CDT 8:29 PM CDT
Civil Twilight 5:19 AM CDT 9:02 PM CDT
Nautical Twilight 4:39 AM CDT 9:43 PM CDT
Astronomical Twilight 3:52 AM CDT 10:30 PM CDT
Moon 8:38 AM CDT (5/13) 11:39 PM CDT (5/13)
Length of Visible Light 15h 42m
Length of Day
14h 37m
Waxing Crescent, 12% of the Moon is Illuminated
May 13
Waxing Crescent
May 17
First Quarter
May 24
Full
May 31
Last Quarter
Jun 8
New

Hourly Weather History & Observations

Time (CDT) Temp. Windchill Dew Point Humidity Pressure Visibility Wind Dir Wind Speed Gust Speed Precip Events Conditions
12:15 AM 41.0 °F - 32.0 °F 70% 30.12 in 10.0 mi Calm Calm - N/A   Clear
12:35 AM 41.0 °F - 28.4 °F 61% 30.11 in 10.0 mi Calm Calm - N/A   Clear
12:55 AM 41.0 °F - 32.0 °F 70% 30.12 in 10.0 mi Calm Calm - N/A   Clear
1:15 AM 39.2 °F - 32.0 °F 75% 30.12 in 10.0 mi Calm Calm - N/A   Clear
1:35 AM 37.4 °F - 32.0 °F 81% 30.12 in 10.0 mi Calm Calm - N/A   Clear
1:55 AM 37.4 °F - 32.0 °F 81% 30.11 in 10.0 mi Calm Calm - N/A   Clear
2:15 AM 37.4 °F - 32.0 °F 81% 30.11 in 10.0 mi Calm Calm - N/A   Clear
2:35 AM 37.4 °F - 32.0 °F 81% 30.10 in 10.0 mi Calm Calm - N/A   Clear
2:55 AM 35.6 °F - 32.0 °F 87% 30.10 in 10.0 mi Calm Calm - N/A   Clear
3:15 AM 37.4 °F - 32.0 °F 81% 30.10 in 10.0 mi Calm Calm - N/A   Clear
3:35 AM 37.4 °F - 32.0 °F 81% 30.10 in 10.0 mi Calm Calm - N/A   Clear
3:55 AM 37.4 °F - 32.0 °F 81% 30.10 in 10.0 mi Calm Calm - N/A   Clear
4:15 AM 37.4 °F - 32.0 °F 81% 30.10 in 10.0 mi Calm Calm - N/A   Clear
4:35 AM 39.2 °F - 32.0 °F 75% 30.09 in 10.0 mi Calm Calm - N/A   Clear
4:55 AM 37.4 °F - 32.0 °F 81% 30.09 in 10.0 mi Calm Calm - N/A   Clear
5:15 AM 35.6 °F - 32.0 °F 87% 30.09 in 10.0 mi Calm Calm - N/A   Clear
5:35 AM 35.6 °F - 32.0 °F 87% 30.09 in 10.0 mi Calm Calm - N/A   Clear
5:55 AM 35.6 °F - 32.0 °F 87% 30.09 in 10.0 mi Calm Calm - N/A   Clear
6:15 AM 35.6 °F - 32.0 °F 87% 30.09 in 10.0 mi Calm Calm - N/A   Clear
6:35 AM 35.6 °F - 32.0 °F 87% 30.10 in 10.0 mi Calm Calm - N/A   Clear
6:55 AM 37.4 °F - 32.0 °F 81% 30.10 in 10.0 mi Calm Calm - N/A   Clear
7:15 AM 42.8 °F - 32.0 °F 66% 30.10 in 10.0 mi Calm Calm - N/A   Clear
7:35 AM 46.4 °F 45.2 °F 32.0 °F 57% 30.10 in 10.0 mi South 3.5 mph - N/A   Clear
7:55 AM 50.0 °F - 28.4 °F 43% 30.10 in 10.0 mi South 4.6 mph - N/A   Clear
8:35 AM 53.6 °F - 23.0 °F 30% 30.10 in 10.0 mi South 5.8 mph - N/A   Clear
8:55 AM 59.0 °F - 21.2 °F 23% 30.10 in 10.0 mi South 9.2 mph - N/A   Clear
9:15 AM 60.8 °F - 15.8 °F 17% 30.09 in 10.0 mi South 10.4 mph - N/A   Clear
9:35 AM 60.8 °F - 14.0 °F 16% 30.08 in 10.0 mi SSW 13.8 mph - N/A   Clear
9:55 AM 62.6 °F - 14.0 °F 15% 30.08 in 10.0 mi South 10.4 mph - N/A   Clear
10:15 AM 60.8 °F - 15.8 °F 17% 30.07 in 10.0 mi South 11.5 mph - N/A   Clear
10:35 AM 62.6 °F - 17.6 °F 18% 30.06 in 10.0 mi South 12.7 mph - N/A   Scattered Clouds
10:55 AM 62.6 °F - 21.2 °F 20% 30.06 in 10.0 mi South 11.5 mph - N/A   Mostly Cloudy
11:15 AM 62.6 °F - 21.2 °F 20% 30.05 in 10.0 mi South 12.7 mph 17.3 mph N/A   Overcast
11:35 AM 64.4 °F - 23.0 °F 21% 30.04 in 10.0 mi SSE 15.0 mph - N/A   Overcast
11:55 AM 66.2 °F - 24.8 °F 21% 30.03 in 10.0 mi South 15.0 mph 21.9 mph N/A   Mostly Cloudy
12:15 PM 64.4 °F - 28.4 °F 26% 30.01 in 10.0 mi South 17.3 mph 21.9 mph N/A   Mostly Cloudy
12:35 PM 68.0 °F - 28.4 °F 23% 30.00 in 10.0 mi South 17.3 mph 21.9 mph N/A   Scattered Clouds
12:55 PM 68.0 °F - 30.2 °F 24% 30.00 in 10.0 mi South 17.3 mph 24.2 mph N/A   Mostly Cloudy
1:15 PM 68.0 °F - 30.2 °F 24% 30.00 in 10.0 mi South 16.1 mph - N/A   Scattered Clouds
1:35 PM 68.0 °F - 32.0 °F 26% 29.98 in 10.0 mi SSE 17.3 mph - N/A   Clear
1:55 PM 69.8 °F - 32.0 °F 25% 29.96 in 10.0 mi South 19.6 mph 24.2 mph N/A   Scattered Clouds
2:15 PM 71.6 °F - 32.0 °F 23% 29.94 in 10.0 mi South 23.0 mph 27.6 mph N/A   Scattered Clouds
2:35 PM 71.6 °F - 32.0 °F 23% 29.93 in 10.0 mi South 23.0 mph 28.8 mph N/A   Clear
3:35 PM 75.2 °F - 33.8 °F 22% 29.89 in 7.0 mi South 21.9 mph 31.1 mph N/A   Clear
3:55 PM 75.2 °F - 32.0 °F 21% 29.88 in 10.0 mi South 24.2 mph 29.9 mph N/A   Clear
4:15 PM 77.0 °F - 32.0 °F 19% 29.87 in 10.0 mi South 21.9 mph 27.6 mph N/A   Clear
4:35 PM 77.0 °F - 32.0 °F 19% 29.86 in 10.0 mi South 20.7 mph 29.9 mph N/A   Clear
4:55 PM 77.0 °F - 32.0 °F 19% 29.85 in 10.0 mi South 19.6 mph 29.9 mph N/A   Clear
5:15 PM 78.8 °F - 32.0 °F 18% 29.84 in 10.0 mi SSW 20.7 mph 28.8 mph N/A   Clear
5:35 PM 78.8 °F - 30.2 °F 17% 29.84 in 10.0 mi SSW 24.2 mph 29.9 mph N/A   Clear
5:55 PM 78.8 °F - 32.0 °F 18% 29.84 in 10.0 mi SSW 21.9 mph 26.5 mph N/A   Clear
6:35 PM 78.8 °F - 32.0 °F 18% 29.82 in 10.0 mi SSW 23.0 mph 27.6 mph N/A   Clear
7:15 PM 77.0 °F - 32.0 °F 19% 29.80 in 10.0 mi South 17.3 mph 24.2 mph N/A   Clear
7:35 PM 75.2 °F - 33.8 °F 22% 29.80 in 10.0 mi South 15.0 mph 21.9 mph N/A   Clear
7:55 PM 73.4 °F - 35.6 °F 25% 29.80 in 10.0 mi South 16.1 mph 21.9 mph N/A   Clear
8:15 PM 73.4 °F - 35.6 °F 25% 29.79 in 10.0 mi South 13.8 mph 23.0 mph N/A   Clear
8:35 PM 71.6 °F - 37.4 °F 29% 29.79 in 10.0 mi South 16.1 mph - N/A   Clear
8:55 PM 71.6 °F - 37.4 °F 29% 29.78 in 10.0 mi South 18.4 mph - N/A   Clear
9:15 PM 69.8 °F - 37.4 °F 31% 29.78 in 10.0 mi South 15.0 mph 19.6 mph N/A   Clear
9:35 PM 69.8 °F - 39.2 °F 33% 29.79 in 10.0 mi South 12.7 mph 20.7 mph N/A   Clear
9:55 PM 69.8 °F - 41.0 °F 35% 29.78 in 10.0 mi South 13.8 mph - N/A   Clear
10:15 PM 68.0 °F - 41.0 °F 37% 29.77 in 10.0 mi South 15.0 mph 19.6 mph N/A   Clear
10:35 PM 68.0 °F - 41.0 °F 37% 29.76 in 10.0 mi South 15.0 mph - N/A   Clear
10:55 PM 68.0 °F - 41.0 °F 37% 29.76 in 10.0 mi South 16.1 mph 21.9 mph N/A   Clear
11:15 PM 66.2 °F - 41.0 °F 40% 29.75 in 10.0 mi South 18.4 mph 23.0 mph N/A   Clear
11:35 PM 66.2 °F - 42.8 °F 43% 29.75 in 10.0 mi SSW 17.3 mph 21.9 mph N/A   Clear
11:55 PM 66.2 °F - 42.8 °F 43% 29.74 in 10.0 mi SSW 16.1 mph 19.6 mph N/A   Clear